Weather Service Report


417 
ASUS44 KLUB 231510
RWRTX 
WEST TEXAS WEATHER ROUNDUP
NATIONAL WEATHER SERVICE LUBBOCK TX
1000 AM CDT FRI JUN 23 2017

NOTE: "FAIR" INDICATES FEW OR NO CLOUDS BELOW 12,000 FEET WITH NO
SIGNIFICANT WEATHER AND/OR OBSTRUCTIONS TO VISIBILITY.

TXZ004-006>008-010-012-014-016-OKZ002-231600-
TEXAS PANHANDLE/OKLAHOMA PANHANDLE
  
CITY           SKY/WX    TMP DP  RH WIND       PRES   REMARKS
AMARILLO       CLOUDY    75  62  64 N22G30    30.03R                  
BORGER         CLOUDY    72  63  73 NE20      30.03R                  
CANADIAN       PTSUNNY   75  66  72 NE13G20   29.97R                  
DALHART        CLOUDY    67  60  78 N26G33    30.13R                  
DUMAS          CLOUDY    65  60  83 NE20G26   30.09R                  
GUYMON         CLOUDY    68  62  81 NE21G30   30.09R                  
HEREFORD       SUNNY     82  60  46 N17       30.01R                  
PAMPA          MOSUNNY   73  64  74 NE21G26   30.02R                  
PERRYTON       CLOUDY    70  65  84 NE18G24   30.03R                  
$$

TXZ026-029-035-045-048-231600-
SOUTHERN PANHANDLE/SOUTH PLAINS/ROLLING PLAINS
  
CITY           SKY/WX    TMP DP  RH WIND       PRES   REMARKS
CHILDRESS      SUNNY     88  63  43 SE5       29.83R                  
SEMINOLE       CLOUDY    91  54  28 S13       29.90R                  
LUBBOCK        MOSUNNY   85  57  38 E12       29.90R                  
PLAINVIEW      SUNNY     81  60  48 SE3       29.90R                  
SNYDER         SUNNY     88  58  36 S8        29.84F                  
$$

TXZ052-054-060>062-072-078-127-140-154-169-231600-
PERMIAN BASIN/CONCHO VALLEY/BIG COUNTRY/EDWARDS PLATEAU  
  
CITY           SKY/WX    TMP DP  RH WIND       PRES   REMARKS
ABILENE        SUNNY     85  63  47 S7        29.83S                  
BIG SPRING     CLOUDY    86  58  38 SE20      29.83F                  
BROWNWOOD      LGT RAIN  84  68  58 SW3       29.83R                  
JUNCTION       SUNNY     87  69  54 S5        29.84R                  
MIDLAND        MOSUNNY   89  56  32 S15       29.85F                  
ODESSA         MOSUNNY   91  55  29 S14       29.87F                  
SAN ANGELO     SUNNY     91  63  39 S7        29.83R                  
SONORA         SUNNY     88  64  45 S9        29.89R                  
SWEETWATER     SUNNY     89  56  32 S10       29.88S                  
WINK           CLOUDY    91  56  30 S13       29.83R                  
$$

TXZ055-058-074-075-080-082-231600-
FAR WEST/SOUTHWEST MOUNTAINS/TRANS PECOS
  
CITY           SKY/WX    TMP DP  RH WIND       PRES   REMARKS
ALPINE         CLOUDY    90  49  24 E5        30.01R                  
DRYDEN           N/A     85  64  49 E9        29.82R                  
EL PASO        MOSUNNY   94  37  13 N9        29.89R                  
FORT STOCKTON  CLOUDY    90  57  32 E10       29.86R                  
GUADALUPE PASS SUNNY     83  53  35 NE30      30.02R                  
MARFA          SUNNY     86  51  29 S5        30.01R                  
PECOS          CLOUDY    88  56  33 E18       29.82R                  
PRESIDIO       FAIR      95  51  22 CALM      29.84R                  
$$

TXZ014-016-019-021>030-083-231600
TEXAS TECH WEST TEXAS MESONET/TEXAS PANHANDLE/NORTHERN SOUTH PLAINS
  
CITY           SKY/WX    TMP DP  RH WIND       PRES   REMARKS
ABERNATHY 5ENE   N/A     82  59  44 E8        29.91S                  
AMARILLO 9NNE    N/A     72  62  71 N20       30.03R                  
AMARILLO 7SSE    N/A     75  62  64 N22       30.03R                  
AMHERST 1NE      N/A     83  57  41 N5        29.95R                  
BOOTLEG 11WNW    N/A     75  60  60 N18       30.07R                  
CANADIAN 6E      N/A     75  64  67 N21       29.95R                  
CAPROCK CYN SP   N/A     84  60  43 NE3       29.88S                  
CHILDRESS 2NNE   N/A     89  62  41 SE2       29.83R                  
CLARENDON 2WSW   N/A     78  62  56 N10       29.93R                  
CLAUDE 12SW      N/A     82  59  45 N16       29.98R                  
DIMMITT 2NE      N/A     83  58  42 N14       29.97R                  
FLOYDADA 2NNE    N/A     83  57  41 E7        29.89S                  
FRIONA 2NE       N/A     77  61  58 N15       30.01R                  
GOODLETT 3W      N/A     89  63  41 S3        29.80R                  
HART 3N          N/A     82  60  46 N10       29.94S                  
HEREFORD 2NW     N/A     78  59  51 N17       30.00R                  
MCLEAN 1E        N/A     74  61  63 N13       29.94S                  
MEMPHIS 1NE      N/A     84  61  46 N9        29.87R                  
MULESHOE 2SSW    N/A     80  60  49 NE8       29.97R                  
OLTON 6S         N/A     82  58  43 E2        29.93R                  
PALO DURO SP     N/A     82  59  44 N15       29.99R                  
PAMPA 2E         N/A     72  63  72 N22       30.01R                  
PLAINVIEW 1S     N/A     84  61  45 SE3       29.90R                  
SILVERTON 7ESE   N/A     85  57  38 NE10      29.91R                  
TULIA 2ENE       N/A     84  59  42 NE12      29.94R                  
TURKEY 2WSW      N/A     85  62  44 NE2       29.86R                  
UMBARGER 3NNE    N/A     78  61  54 N21       30.02R                  
$$

TXZ033>036-039>041-045>048-231600
TEXAS TECH WEST TEXAS MESONET/SOUTH PLAINS  
  
CITY           SKY/WX    TMP DP  RH WIND       PRES   REMARKS
AIKEN 3WSW       N/A     83  62  48 E10       29.91S                  
ANDREWS 2NE      N/A     89  52  28 S13       29.88R                  
ANTON 6SSW       N/A     83  58  41 E5        29.92R                  
BROWNFIELD 2S    N/A     88  55  33 NE5       29.91R                  
DENVR CTY 7WNW   N/A     89  52  28 SE13      29.92R                  
GAIL 2ESE        N/A     91  58  33 S13       29.83R                  
LAMESA 2SE       N/A     86  56  35 S10       29.89R                  
LEVELLAND 4S     N/A     85  53  33 E3        29.94                   
LUBBOCK 3WNW     N/A     84  56  37 E3        29.90F                  
MORTON 1ENE      N/A     83  55  38 E6        29.95S                  
ODONNELL 1N      N/A     90  52  27 S9        29.88R                  
PLAINS 3N        N/A     87  55  34 NE6       29.94R                  
RALLS 1SE        N/A     85  56  37 E7        29.89S                  
REESE CENTER     N/A     83  55  37 SE1       29.91S                  
SEAGRAVES 1SW    N/A     91  55  29 S9        29.90R                  
SEMINOLE 2NNE    N/A     91  52  26 S10       29.88S                  
SLATON 2NE       N/A     87  54  32 E8        29.88S                  
SNYDER 3E        N/A     91  56  30 S10       29.83F                  
SUNDOWN 8SW      N/A     88  53  30 NE5       29.94R                  
TAHOKA 3NNE      N/A     88  56  33 E5        29.89R                  
WOLFFORTH 6SSW   N/A     87  54  32 NE2       29.91R                  
$$

TXZ031-032-036>038-042>044-231600-
TEXAS TECH WEST TEXAS MESONET/ROLLING PLAINS 
  
CITY           SKY/WX    TMP DP  RH WIND       PRES   REMARKS
ASPERMONT 3NE    N/A     90  59  34 SE5       29.80S                  
FLUVANNA 3WNW    N/A     90  54  29 SE13      29.84S                  
GRAHAM 5SSW      N/A     90  56  31 E5        29.87R                  
GUTHRIE 10WSW    N/A     88  58  36 SE5       29.81F                  
HASKELL 1NW      N/A     87  60  40 S7        29.80S                  
JAYTON 1SSE      N/A     87  57  35 E3        29.82S                  
KNOX CITY 3NW    N/A     90  60  36 SE6       29.80S                  
LK A HENRY 1NW   N/A     90  56  32 E6        29.82F                  
NORTHFIELD 1S    N/A     86  62  45 SE6       29.82F                  
ODELL 4ENE       N/A     85  70  60 S10       29.79F                  
PADUCAH 10SW     N/A     85  62  45 NE6       29.82R                  
POST 1NE         N/A     86  56  35 E3        29.85S                  
RRING SPRGS 3N   N/A     85  61  44 E3        29.86R                  
SEYMOUR 3NW      N/A     90  73  58 S10       29.77F HX  98           
SPUR 1W          N/A     83  55  37 E7        29.83F                  
WHITE RVR 6NE    N/A     85  56  37 E6        29.85F                  
$$

TXZ052-054-060>062-072-078-127-140-154-169-231600-
TEXAS TECH WEST TEXAS MESONET/PERMIAN BASIN/
CONCHO VALLEY/BIG COUNTRY/EDWARDS PLATEAU
  
CITY           SKY/WX    TMP DP  RH WIND       PRES   REMARKS
COYANOSA 2N      N/A     87  58  38 E20       29.83F                  
JUNCTION 1SSW    N/A     88  68  51 S6        29.84S                  
MERTZON 3NNE     N/A     93  64  37 S7        29.85S                  
SAN ANGELO 7NW   N/A     90  61  36 S8        29.83S                  
STRLNG CT 4WSW   N/A     90  60  36 S13       29.85S                  
ST LAWRNCE 5SW   N/A     89  58  35 S15       29.86S                  
SWEETWATR 11SW   N/A     91  61  37 SW7       29.87S                  
WALL 1E          N/A     91  65  42 SW8       29.84F                  
$$

TXZ055-058-074-075-080-082-231600-
TEXAS TECH WEST TEXAS MESONET/FAR WEST/SOUTHWEST MOUNTAINS/TRANS PECOS
  
CITY           SKY/WX    TMP DP  RH WIND       PRES   REMARKS
PRSMN GAP BBNP   N/A     88  56  33 NE12      29.85R                  
GUADLPE MTN NP   N/A     81  48  31 NE7       30.07R                  
$$
  

Return to Home page


Western Regional Climate Center, wrcc@dri.edu